Regional Weather Roundup
Issued by NWS State College, PA

Home | Current Version | Previous Version | Text Only | Print | Product List | Glossary On
Versions: 1 2 3 4 5 6 7 8 9 10 11 12 13 14 15 16 17 18 19 20 21 22 23 24 25 26 27 28 29 30 31 32 33 34 35 36 37 38 39 40 41 42 43 44 45 46 47 48 49 50
000
ASUS41 KCTP 190903
RWRCTP

REGIONAL WEATHER ROUNDUP
NATIONAL WEATHER SERVICE STATE COLLEGE PA
500 AM EDT SAT AUG 19 2017

Note: "fair" indicates few or no clouds below 12,000 feet with no
significant weather and/or obstructions to visibility.

* = STATION THAT DOES NOT REPORT PRECIPITATION /E.G. RAIN...SNOW...ETC/
    THUNDER OR FOG.

PAZ002>004-007>009-013>016-020>023-029>032-191000-
WESTERN PENNSYLVANIA

CITY           SKY/WX    TMP DP  RH WIND       PRES   REMARKS
ERIE           MOCLDY    66  61  84 SW6       29.85F
MEADVILLE      CLEAR     63  63 100 SW5       29.89F
FRANKLIN*      PTCLDY    63  57  82 SW7       29.91R
NEW CASTLE     FAIR      61  61 100 S3        29.91S
BEAVER COUNTY  NOT AVBL
BUTLER*        CLEAR     63  61  94 CALM      29.92S
PITTSBURGH INT PTCLDY    67  65  93 CALM      29.91S
PITTSBURGH     CLEAR     68  62  81 SW7       29.91S
INDIANA*       PTCLDY    63  63 100 CALM      29.94S FOG
LATROBE        CLEAR     64  64 100 SW7       29.93S
WASHINGTON CO* CLEAR     63  61  94 CALM      29.93S
$$

PAZ004>006-010>012-017>019-024>028-033>037-041-042-045-046-049>053-191000-
CENTRAL PENNSYLVANIA

CITY           SKY/WX    TMP DP  RH WIND       PRES   REMARKS
BRADFORD       CLEAR     62  61  96 CALM      29.89F
DUBOIS         CLEAR     61  58  90 W6        29.91R
CLEARFIELD     PTCLDY    63  63 100 SW5       29.91S
JOHNSTOWN      MOCLDY    65  62  90 W8        29.95R
ALTOONA        CLEAR     63  62  97 SW5       29.92S
STATE COLLEGE  PTCLDY    65  62  91 W7        29.89S
WILLIAMSPORT   CLEAR     69  67  93 W6        29.83S
SELINSGROVE    PTCLDY    65  65 100 CALM      29.86S FOG
FT INDIANTOWN  CLEAR     70  70 100 CALM      29.85R
CAPITAL CITY   MOCLDY    71  66  84 W7        29.86R
HARRISBURG     PTCLDY    72  68  87 NW9       29.85R
YORK           PTCLDY    71  69  93 W3        29.86S
$$

PAZ038>040-043-044-047-048-054-055-060>062-067>071-191000-
EASTERN PENNSYLVANIA

CITY           SKY/WX    TMP DP  RH WIND       PRES   REMARKS
SCRANTON       CLOUDY    70  68  93 CALM      29.84S
MOUNT POCONO   PTCLDY    65  65 100 W5        29.88S
ALLENTOWN      MOCLDY    73  70  90 MISG      29.83R FOG
QUAKERTOWN*    CLOUDY    72  72 100 CALM      29.84S
READING        PTCLDY    72  72 100 CALM      29.83R
LANCASTER      MOCLDY    73  73 100 W9        29.85R FOG
COATESVILLE    CLOUDY    73  73 100 NW8       29.87R FOG
POTTSTOWN      PTCLDY    72  72 100 CALM      29.85R FOG
BLUE BELL      CLOUDY    72  72 100 CALM      29.85R
DOYLESTOWN     CLOUDY    73  72  96 CALM      29.82R
WILLOW GROVE   NOT AVBL
NORTH PHILA    CLOUDY    77  73  87 W5        29.84R
PHILADELPHIA   CLOUDY    76  73  91 SW7       29.83R
$$




USA.gov is the U.S. government's official web portal to all federal, state and local government web resources and services.